Location: Blanot
(47.1713°N, 4.2340°E)
Time: 20:59:15
(UTC+00:00)

Cosmos 1725 Rocket - Pass Details

Date: 14 July 2020
Orbit: 963 x 990 km, 82.9° (Epoch: 14 August)

Event Time Altitude Azimuth Distance (km) Brightness Sun altitude
Exits shadow 01:21:06 22° 166° (SSE) 1,998 5.2 -18.1°
Maximum altitude 01:25:11 60° 93° (E) 1,104 4.3 -17.9°
Drops below altitude 10° 01:31:20 10° 15° (NNE) 2,737 7.6 -17.4°
Sets 01:33:53 0° 12° (NNE) 3,693 8.6 -17.3°
